Погода в Приманыче

Россия / Республика Калмыкия     45°58′27″N   44°31′53″E
темп.,
°C
ветер,
м/с
пор.,
м/с
влажн.,
%
обл.,
%
осадки,
мм/ч
давл.,
гПа
погр.,
м
9 марта, вт
вт900:00+1зюз51072100 0.0 1016383
03:00−1зюз5117669 0.0 1016324
06:000юз5117591 0.0 1015413
09:00+2з9136796 0.0 1015989
12:00+4зюз101564100 0.0 10151505
15:00+3зсз91186100 0.3 1015839
18:00+2з5979100 0.0 1016425
21:00−1з467692 0.1 1018137
10 марта, ср
ср1000:00−1з4107421 0.0 1018321
03:00−2з587432 0.0 1020347
06:00−2зсз597891 0.0 1021622
09:00−1сз685649 0.0 10241290
12:000сз6845100 0.0 10241586
15:00+1сз674197 0.0 10241670
18:00−2с474993 0.0 1024268
21:00−3ссв365497 0.0 1025414
11 марта, чт
чт1100:00−4св4552100 0.0 1025503
03:00−4св5751100 0.0 1025552
06:00−5всв6853100 0.0 1025727
09:00−5всв7847100 0.0 1027756
12:00−4всв7837100 0.0 1026897
15:00−4св7831100 0.0 1026981
18:00−6всв7936100 0.0 1026975
21:00−6всв81034100 0.0 1027958
12 марта, пт
пт1200:00−7всв81040100 0.0 1028868
03:00−9всв81042100 0.0 1028836
06:00−10всв81046100 0.0 1030765
09:00−9всв7941100 0.0 1031734
12:00−7всв6832100 0.0 1032892
15:00−5всв672694 0.0 10321166
18:00−6в562699 0.0 10331038
21:00−7в462789 0.0 1034899
13 марта, сб
сб1300:00−7в36300 0.0 1035482
03:00−8всв35310 0.0 1035266
06:00−9всв46330 0.0 1035229
09:00−6в45240 0.0 1037639
12:00−3в44180 0.0 10361022
15:00−2вюв44180 0.0 10341192
18:00−4в46270 0.0 1033223
21:00−5вюв47300 0.0 1033259